Location: Collada de la Plana del Alba
(42.7469°N, 0.1206°W)
Time: 12:15:28
(UTC+00:00)

Daily predictions for brighter satellites

Satellite Brightness Start Highest point End
(mag) Time Altitude Azimuth Time Altitude Azimuth Time Altitude Azimuth
Cosmos 1954 Rocket 4.0 20:13:16 10° NNW 20:18:33 82° ENE 20:23:46 10° SSE
Cosmos 1544 Rocket 3.9 20:16:24 10° N 20:20:37 47° ENE 20:24:48 10° SSE
Lacrosse 5 rocket 2.5 20:17:42 10° WNW 20:21:13 34° SW 20:24:53 10° SSE
Cosmos 1656 4.1 20:17:26 10° NNW 20:22:45 48° ENE 20:28:04 10° SE
GEOS 3 Rocket 3.7 20:17:53 10° SE 20:22:57 75° NE 20:28:05 10° NNW
ATLAS 2AS CENTAUR R/B 2.8 20:22:00 10° NW 20:29:06 84° WSW 20:35:42 10° SSE
MetOp-B 4.5 20:24:32 10° SE 20:29:42 51° ENE 20:34:53 10° N
PSLV R/B 4.0 20:29:05 10° NNE 20:33:16 88° ESE 20:37:27 10° SSW
USA 32 4.1 20:28:35 10° S 20:33:44 67° E 20:38:56 10° N
Cosmos 1980 Rocket 4.1 20:30:10 10° N 20:33:55 18° NE 20:37:39 10° E
Cosmos 1697 Rocket 3.8 20:29:43 10° N 20:34:40 30° NE 20:39:32 10° ESE
SL-8 R/B 4.2 20:31:15 10° WNW 20:36:00 58° NNE 20:40:46 10° E
TSX-5 4.3 20:32:23 10° SSW 20:36:44 79° ESE 20:42:27 10° NNE
SPOT 1/Viking Rocket 3.6 20:34:53 10° SSE 20:40:01 88° ENE 20:45:13 10° NNW
COSMOS 2406 4.2 20:36:59 10° SSE 20:41:39 26° ESE 20:46:19 10° NE
Spot 2 Rocket 4.5 20:38:47 11° SE 20:43:00 33° ENE 20:47:33 10° N
Cosmos 1025 Rocket 4.0 20:39:22 10° SSW 20:43:30 49° WNW 20:47:42 10° N
X-37B 1.0 20:41:15 10° WNW 20:44:00 53° N 20:46:47 10° E
NOSS 2-1 (E) 4.4 20:43:53 10° NW 20:48:47 76° SW 20:55:09 13° SSE
SPOT 5 3.5 20:49:45 14° SE 20:52:57 35° ENE 20:56:52 10° N
Cosmos 1703 3.5 20:51:13 11° SSE 20:54:44 49° E 20:58:28 10° NNE
Cosmos 1452 Rocket 3.5 20:52:07 10° SSW 20:57:22 87° ESE 21:02:40 10° NNE
Cosmos 1833 Rocket 2.7 20:52:03 10° S 20:57:32 60° ESE 21:03:04 10° NNE
RESURS DK-1 2.5 20:54:19 10° NNW 20:58:26 60° ENE 21:01:19 18° SE
Delta 2 Rocket 4.0 20:56:09 10° SW 20:58:53 23° S 20:59:57 20° SSE
Terra 2.9 20:56:28 15° ESE 20:59:40 31° ENE 21:03:50 10° N
CZ-4B R/B 2.3 21:00:35 10° N 21:03:19 41° WNW 21:06:04 10° SW
Cosmos 1110 Rocket 4.0 20:58:12 10° S 21:03:22 63° ESE 21:08:36 10° NNE
Helios 1A Rocket 3.6 21:01:06 18° SE 21:03:43 40° ENE 21:07:33 10° N
ERS-1 Rocket 3.5 21:02:33 17° SE 21:06:08 46° ENE 21:10:56 10° N
Resurs 01 Rocket 2.8 21:02:26 10° SSW 21:06:37 40° W 21:10:49 10° NNW
Cosmos 2228 3.2 21:08:31 10° N 21:12:42 56° E 21:15:16 22° SSE
Cosmos 1408 4.3 21:16:15 15° E 21:16:27 15° E 21:18:33 10° NE
Cosmos 2184 Rocket 4.0 21:10:35 10° N 21:16:48 82° E 21:21:54 16° S
Lacrosse 5 3.2 21:14:09 10° WNW 21:18:34 30° SW 21:22:05 14° S
Cosmos 968 Rocket 4.5 21:18:55 10° N 21:23:39 34° ENE 21:26:36 19° ESE
Cosmos 1328 4.2 21:22:06 25° SSE 21:24:00 45° E 21:27:50 10° NNE
Cosmos 2082 Rocket 2.5 21:27:22 18° S 21:31:22 47° ESE 21:36:49 10° NE
Cosmos 2360 4.2 21:26:36 10° NNW 21:32:22 80° ENE 21:35:50 25° SSE
USA 245 3.9 21:30:03 18° S 21:33:02 50° WSW 21:36:26 10° NNW
Cosmos 1455 4.3 21:30:53 10° NW 21:33:55 23° W 21:36:57 10° SW
ARIANE 5 R/B 3.0 21:35:43 28° SE 21:37:45 51° ENE 21:42:03 10° N
USA 267 3.7 21:32:58 10° ENE 21:38:58 37° SE 21:44:55 10° SSW
Cosmos 1606 Rocket 3.5 21:37:06 10° N 21:41:26 75° E 21:43:23 32° SSE
Meteor 1-21 Rocket 4.3 21:36:53 12° SSW 21:42:05 81° W 21:47:49 10° N
GP-B 4.2 21:38:40 10° NNE 21:42:30 28° E 21:43:34 25° ESE
Cosmos 2341 Rocket 4.5 21:37:48 10° N 21:43:51 46° ENE 21:47:01 26° SE
Cosmos 192 4.2 21:43:00 18° SSW 21:46:35 77° ESE 21:51:30 10° NNE
Cosmos 1892 2.8 22:02:06 48° ESE 22:02:31 51° E 22:06:12 10° NNE
SAR-Lupe-1 4.3 22:00:07 10° NNE 22:03:35 47° E 22:03:39 47° ESE
Cosmos 1726 Rocket 3.5 21:59:49 10° N 22:04:09 81° W 22:05:41 40° S
Nadezhda 1 Rocket 4.5 22:03:16 12° SSW 22:08:49 55° WNW 22:14:47 10° N
Cosmos 2181 Rocket 4.2 22:07:22 33° SSE 22:09:54 53° E 22:15:56 10° NNE
Cosmos 962 Rocket 4.5 22:07:44 10° N 22:14:02 90° ENE 22:17:08 33° S
Cosmos 1992 Rocket 4.1 22:15:18 41° SSE 22:16:46 54° ESE 22:21:53 10° NNE
SL-16 R/B 3.6 22:13:35 10° N 22:18:27 29° NE 22:21:23 19° E
Cosmos 1932 4.3 22:13:39 18° SSW 22:18:27 77° ESE 22:24:47 10° NE
SL-8 R/B 4.0 22:13:54 10° WNW 22:18:31 47° SW 22:19:18 42° S
Cosmos 1980 Rocket 2.1 22:12:57 10° NNW 22:18:41 85° WSW 22:20:52 39° SSE
Cosmos 1697 Rocket 3.5 22:13:29 10° NW 22:18:44 42° WSW 22:21:16 26° SSW
X-37B 2.1 22:16:47 10° W 22:18:13 26° W 22:18:13 26° W
Cosmos 2369 3.8 22:16:34 10° NNW 22:22:18 71° WSW 22:24:30 38° S
COSMOS 2406 4.1 22:20:04 10° SW 22:25:37 48° WNW 22:31:12 10° NNE
ATLAS 5 CENTAUR R/B 0.9 22:29:23 78° SSE 22:29:30 79° SE 22:33:32 10° NE
Cosmos-2242 4.5 22:27:17 10° NNE 22:30:44 23° ENE 22:31:12 23° E
Cosmos 1602 Rocket 4.2 22:32:11 37° E 22:32:15 37° E 22:36:14 10° NNE
In-Cosmos 22 Rocket 4.1 22:30:23 40° S 22:32:28 82° E 22:37:56 10° NNE
Cosmos 1869 3.4 22:31:10 10° N 22:35:01 58° E 22:35:09 57° E
Cosmos 2084 Rocket 4.0 22:32:40 10° NW 22:36:23 39° WSW 22:36:30 39° SW
Terra 3.2 22:35:21 22° SW 22:37:21 29° W 22:41:32 10° NW
ALOS 2 4.0 22:39:48 25° E 22:40:38 27° ENE 22:44:20 10° N
Meteor 1-27 4.1 22:35:21 10° N 22:40:56 81° E 22:42:35 47° SSE
FALCON 9 DEB 4.2 22:38:59 10° NW 22:42:04 37° NNE 22:42:17 37° NE
ASTEX 1 3.7 22:39:04 10° N 22:44:01 63° W 22:45:50 38° SW
ADEOS Rocket 4.1 22:45:43 28° ESE 22:49:15 48° ENE 22:56:34 10° N
Cosmos 1825 2.1 22:49:40 73° W 22:49:41 73° W 22:53:26 10° N
SL-8 Rocket 4.1 22:44:27 10° NNW 22:50:37 67° W 22:53:01 38° SSW
Cosmos 1408 4.1 22:50:12 25° W 22:50:53 27° WNW 22:53:51 10° NNW
Cosmos 2058 Rocket 3.9 22:47:26 10° NNW 22:51:38 42° W 22:52:35 37° SW
Cosmos 2322 Rocket 3.2 22:48:49 10° N 22:54:05 38° ENE 22:56:24 27° ESE
Cosmos 1626 Rocket 3.5 22:54:44 66° SW 22:55:15 78° W 22:59:37 10° N
Cosmos 1503 Rocket 4.3 22:52:07 10° NNW 22:57:22 58° ENE 22:58:35 46° ESE
USA 276 3.7 23:00:19 10° NW 23:02:50 32° N 23:02:50 32° N
Cosmos 2278 3.9 22:59:20 10° NNW 23:04:59 62° WSW 23:06:17 49° SSW
Cosmos 1825 Rocket 4.4 23:08:18 38° E 23:08:18 38° E 23:12:02 10° NNE
Cosmos 2333 Rocket 4.2 23:04:36 10° N 23:09:01 22° NE 23:12:52 12° E
Gbstr 26 Del rocket 4.1 23:11:09 33° E 23:11:09 33° E 23:14:12 10° ENE
Cosmos 2366 rocket 4.4 23:03:30 10° NNW 23:09:43 58° W 23:12:00 38° SSW
SJ 16-02 1.9 23:07:38 10° N 23:11:56 47° ENE 23:12:19 45° E
Cosmos 1340 Rocket 4.4 23:13:04 24° ENE 23:13:04 24° ENE 23:15:36 10° NE
Cosmos 2218 Rocket 4.5 23:07:04 10° NNW 23:13:17 54° W 23:15:36 36° SSW
Meteor 2-20 4.3 23:13:52 51° S 23:15:34 84° E 23:21:41 10° N
Cosmos 2082 Rocket 4.0 23:10:45 10° WSW 23:15:39 29° NW 23:20:34 10° N
Cosmos 1867 4.3 23:11:35 10° NW 23:16:34 37° WSW 23:17:08 36° SW
H-2A R/B 3.4 23:16:54 10° NNE 23:20:55 74° ENE 23:20:55 74° ENE
USA 267 3.5 23:15:42 10° NE 23:22:12 68° NW 23:28:40 10° WSW
Cosmos 2058 3.3 23:26:08 53° ENE 23:26:08 53° ENE 23:29:51 10° NNE
Cosmos 2221 4.1 23:24:18 10° NNE 23:27:53 24° ENE 23:28:17 24° E
Spot 4 3.9 23:27:39 59° SW 23:28:04 61° W 23:32:50 10° NNW
Cosmos 1606 3.0 23:24:54 10° N 23:28:16 62° NNE 23:28:16 62° NNE
Cosmos 2360 Rocket 2.9 23:24:35 10° NNW 23:30:03 46° ENE 23:32:00 34° ESE
Cosmos 1934 Rocket 4.4 23:25:28 10° N 23:31:25 52° ENE 23:33:06 41° SE
Cosmos 1833 4.4 23:39:57 50° ESE 23:40:21 51° ESE 23:45:45 10° NE
Cosmos 44 3.7 23:41:21 44° E 23:41:21 44° E 23:44:57 10° NE
Meteor 2-2 Rocket 4.4 23:37:08 10° N 23:43:10 72° E 23:44:36 52° SE
Meteor 2-20 Rocket 4.4 23:42:26 53° SSW 23:43:59 83° W 23:50:08 10° N
Cosmos 1633 4.2 23:45:56 26° WNW 23:45:56 26° WNW 23:48:34 10° NNW
Cosmos 2237 4.1 23:40:03 10° NNW 23:45:49 89° WSW 23:46:53 61° SSE
Cosmos 1758 Rocket 4.2 23:45:44 42° W 23:46:04 43° WNW 23:50:16 10° N
